JAG7221 KMKE-MMUN

Flight info

Callsign JAG7221
Flight time 3h 18m
Altitude 38000
Route ACCRA5 ACCRA DCT RBS J71 MEM/N0453F360 J35 SQS/N0449F350 J35 MCB DCT LEV L214 IRDOV UL214 NUDIS/N0453F360 UT38 LEVAT/N0450F370 UM782 VOMAR VOMAR1A
Aircraft A321/M-SDE3FGHIRWY/LB1

Departure

Time 2026-04-28 22:50
Airport General Mitchell International Airport (KMKE)

Arrival

Time 2026-04-29 02:08
Airport Cancún International Airport (MMUN)
Time Latitude Longitude Altitude Speed Heading
2026-04-28 22:05 42.94806 -87.89819 669 ft 0 kts 271°
2026-04-28 22:38 42.94806 -87.89814 678 ft 3 kts 270°
2026-04-28 22:38 42.94805 -87.89787 678 ft 3 kts 270°
2026-04-28 22:39 42.94805 -87.89761 677 ft 3 kts 270°
2026-04-28 22:39 42.94811 -87.89736 674 ft 3 kts 207°
2026-04-28 22:39 42.94829 -87.89725 673 ft 3 kts 205°
2026-04-28 22:39 42.94846 -87.89714 673 ft 3 kts 183°
2026-04-28 22:40 42.94848 -87.89714 675 ft 0 kts 183°
2026-04-28 22:42 42.94846 -87.89714 673 ft 1 kts 183°
2026-04-28 22:42 42.94816 -87.89717 673 ft 5 kts 183°
2026-04-28 22:42 42.94780 -87.89700 677 ft 8 kts 146°
2026-04-28 22:43 42.94737 -87.89638 678 ft 10 kts 158°
2026-04-28 22:43 42.94666 -87.89640 681 ft 1 kts 186°
2026-04-28 22:43 42.94650 -87.89643 681 ft 4 kts 186°
2026-04-28 22:43 42.94608 -87.89650 681 ft 8 kts 187°
2026-04-28 22:44 42.94541 -87.89668 681 ft 9 kts 218°
2026-04-28 22:44 42.94513 -87.89764 680 ft 12 kts 252°
2026-04-28 22:44 42.94487 -87.89880 679 ft 8 kts 252°
2026-04-28 22:44 42.94500 -87.89959 680 ft 10 kts 348°
2026-04-28 22:45 42.94542 -87.89900 683 ft 10 kts 61°
2026-04-28 22:45 42.94587 -87.89797 681 ft 15 kts 57°
2026-04-28 22:45 42.94691 -87.89736 679 ft 8 kts
2026-04-28 22:45 42.94717 -87.89731 677 ft 4 kts
2026-04-28 22:46 42.94753 -87.89694 676 ft 9 kts 55°
2026-04-28 22:46 42.94759 -87.89592 677 ft 13 kts 89°
2026-04-28 22:46 42.94753 -87.89454 677 ft 16 kts 93°
2026-04-28 22:46 42.94747 -87.89297 674 ft 10 kts 94°
2026-04-28 22:47 42.94744 -87.89230 676 ft 8 kts 93°
2026-04-28 22:47 42.94739 -87.89130 674 ft 13 kts 93°
2026-04-28 22:47 42.94734 -87.88991 673 ft 14 kts 93°
2026-04-28 22:47 42.94716 -87.88902 668 ft 10 kts 138°
2026-04-28 22:48 42.94647 -87.88865 666 ft 10 kts 179°
2026-04-28 22:48 42.94601 -87.88932 668 ft 10 kts 251°
2026-04-28 22:48 42.94600 -87.88938 669 ft 0 kts 251°
2026-04-28 22:49 42.94572 -87.89053 672 ft 46 kts 251°
2026-04-28 22:49 42.94385 -87.89822 680 ft 122 kts 252°
2026-04-28 22:49 42.94056 -87.91180 806 ft 171 kts 251°
2026-04-28 22:50 42.93643 -87.92752 1514 ft 181 kts 252°
2026-04-28 22:50 42.93213 -87.94413 2093 ft 193 kts 255°
2026-04-28 22:50 42.92742 -87.96247 2375 ft 217 kts 248°
2026-04-28 22:50 42.91843 -87.98049 2679 ft 243 kts 227°
2026-04-28 22:51 42.90412 -87.99407 3262 ft 257 kts 207°
2026-04-28 22:51 42.88652 -88.00045 3940 ft 265 kts 192°
2026-04-28 22:51 42.86869 -88.00675 4637 ft 267 kts 205°
2026-04-28 22:51 42.85239 -88.01824 5347 ft 266 kts 214°
2026-04-28 22:52 42.83622 -88.03134 6135 ft 267 kts 214°
2026-04-28 22:52 42.82042 -88.04417 6881 ft 268 kts 214°
2026-04-28 22:52 42.80441 -88.05719 7617 ft 268 kts 214°
2026-04-28 22:52 42.78837 -88.07025 8338 ft 270 kts 214°
2026-04-28 22:53 42.77216 -88.08339 9068 ft 272 kts 214°
2026-04-28 22:53 42.75590 -88.09661 9801 ft 273 kts 214°
2026-04-28 22:53 42.73934 -88.11006 10203 ft 287 kts 214°
2026-04-28 22:53 42.72157 -88.12457 10336 ft 308 kts 214°
2026-04-28 22:54 42.70203 -88.13851 10607 ft 326 kts 204°
2026-04-28 22:54 42.67971 -88.14586 11185 ft 336 kts 190°
2026-04-28 22:54 42.65605 -88.14661 11817 ft 341 kts 185°
2026-04-28 22:54 42.63228 -88.14648 12469 ft 343 kts 185°
2026-04-28 22:55 42.60835 -88.14638 13114 ft 344 kts 185°
2026-04-28 22:55 42.58434 -88.14626 13782 ft 345 kts 186°
2026-04-28 22:55 42.56024 -88.14613 14373 ft 347 kts 186°
2026-04-28 22:55 42.53593 -88.14591 14901 ft 351 kts 185°
2026-04-28 22:56 42.51164 -88.14520 15417 ft 355 kts 185°
2026-04-28 22:56 42.48677 -88.14415 15932 ft 360 kts 185°
2026-04-28 22:56 42.46160 -88.14295 16456 ft 363 kts 184°
2026-04-28 22:56 42.43613 -88.14171 16954 ft 368 kts 185°
2026-04-28 22:57 42.41043 -88.13952 17449 ft 376 kts 178°
2026-04-28 22:57 42.38444 -88.13287 17914 ft 383 kts 175°
2026-04-28 22:57 42.35812 -88.12576 18341 ft 388 kts 175°
2026-04-28 22:57 42.33150 -88.11861 18768 ft 391 kts 175°
2026-04-28 22:58 42.30468 -88.11142 19259 ft 393 kts 176°
2026-04-28 22:58 42.27777 -88.10438 19762 ft 395 kts 176°
2026-04-28 22:58 42.25077 -88.09753 20279 ft 396 kts 177°
2026-04-28 22:58 42.22357 -88.09077 20801 ft 397 kts 178°
2026-04-28 22:59 42.19619 -88.08402 21209 ft 401 kts 178°
2026-04-28 22:59 42.16895 -88.07728 21709 ft 403 kts 178°
2026-04-28 22:59 42.14097 -88.07031 22194 ft 405 kts 178°
2026-04-28 22:59 42.11353 -88.06343 22641 ft 407 kts 178°
2026-04-28 23:00 42.08563 -88.05642 23082 ft 409 kts 178°
2026-04-28 23:00 42.05754 -88.04941 23512 ft 411 kts 178°
2026-04-28 23:00 42.03886 -88.04479 23751 ft 412 kts 178°
2026-04-28 23:00 42.01068 -88.03796 24135 ft 412 kts 179°
2026-04-28 23:01 41.98234 -88.03121 24522 ft 413 kts 179°
2026-04-28 23:01 41.95390 -88.02447 24874 ft 414 kts 179°
2026-04-28 23:01 41.92558 -88.02106 25236 ft 405 kts 188°
2026-04-28 23:01 41.89772 -88.02322 25596 ft 400 kts 193°
2026-04-28 23:02 41.86992 -88.02636 25967 ft 401 kts 193°
2026-04-28 23:02 41.84204 -88.02945 26337 ft 402 kts 193°
2026-04-28 23:02 41.81410 -88.03250 26702 ft 403 kts 194°
2026-04-28 23:02 41.78602 -88.03554 27076 ft 404 kts 194°
2026-04-28 23:03 41.75796 -88.03858 27389 ft 405 kts 194°
2026-04-28 23:03 41.72978 -88.04166 27712 ft 407 kts 194°
2026-04-28 23:03 41.70183 -88.04474 28032 ft 409 kts 194°
2026-04-28 23:03 41.67348 -88.04784 28356 ft 410 kts 194°
2026-04-28 23:04 41.64498 -88.05093 28674 ft 411 kts 194°
2026-04-28 23:04 41.58769 -88.05713 29301 ft 414 kts 195°
2026-04-28 23:04 41.55890 -88.06021 29613 ft 416 kts 195°
2026-04-28 23:05 41.52996 -88.06331 29867 ft 418 kts 195°
2026-04-28 23:05 41.50102 -88.06643 30116 ft 420 kts 195°
2026-04-28 23:05 41.47176 -88.06960 30363 ft 421 kts 195°
2026-04-28 23:05 41.44241 -88.07276 30618 ft 422 kts 195°
2026-04-28 23:06 41.41314 -88.07590 30970 ft 421 kts 195°
2026-04-28 23:06 41.38398 -88.07901 31332 ft 419 kts 195°
2026-04-28 23:06 41.35501 -88.08210 31694 ft 417 kts 195°
2026-04-28 23:06 41.32650 -88.08516 32007 ft 415 kts 196°
2026-04-28 23:07 41.29778 -88.08823 32423 ft 411 kts 196°
2026-04-28 23:07 41.26928 -88.09126 32865 ft 407 kts 199°
2026-04-28 23:07 41.24111 -88.09434 33241 ft 406 kts 196°
2026-04-28 23:07 41.21299 -88.09743 33515 ft 406 kts 196°
2026-04-28 23:08 41.18486 -88.10049 33816 ft 405 kts 196°
2026-04-28 23:08 41.15678 -88.10350 34106 ft 404 kts 196°
2026-04-28 23:08 41.12876 -88.10646 34350 ft 403 kts 196°
2026-04-28 23:08 41.10111 -88.10939 34549 ft 402 kts 197°
2026-04-28 23:09 41.07332 -88.11229 34865 ft 400 kts 197°
2026-04-28 23:09 41.04561 -88.11516 35113 ft 399 kts 197°
2026-04-28 23:09 41.01793 -88.11807 35322 ft 399 kts 197°
2026-04-28 23:09 40.99028 -88.12103 35523 ft 399 kts 197°
2026-04-28 23:10 40.96250 -88.12401 35721 ft 400 kts 197°
2026-04-28 23:10 40.93480 -88.12701 35907 ft 400 kts 197°
2026-04-28 23:10 40.90706 -88.13000 36096 ft 400 kts 197°
2026-04-28 23:10 40.87926 -88.13294 36252 ft 400 kts 197°
2026-04-28 23:11 40.85148 -88.13583 36491 ft 399 kts 197°
2026-04-28 23:11 40.82381 -88.13871 36678 ft 399 kts 197°
2026-04-28 23:11 40.79610 -88.14163 36847 ft 399 kts 197°
2026-04-28 23:11 40.76831 -88.14459 37001 ft 400 kts 197°
2026-04-28 23:12 40.74051 -88.14755 37146 ft 400 kts 197°
2026-04-28 23:12 40.71274 -88.15052 37294 ft 401 kts 197°
2026-04-28 23:12 40.68505 -88.15342 37537 ft 398 kts 197°
2026-04-28 23:12 40.65784 -88.15626 37803 ft 395 kts 197°
2026-04-28 23:13 40.63049 -88.15913 37982 ft 394 kts 197°
2026-04-28 23:13 40.60313 -88.16204 38018 ft 395 kts 198°
2026-04-28 23:13 40.57640 -88.16795 38022 ft 384 kts 206°
2026-04-28 23:13 40.55126 -88.17861 38026 ft 379 kts 211°
2026-04-28 23:14 40.50151 -88.20237 38027 ft 381 kts 211°
2026-04-28 23:14 40.45156 -88.22609 37999 ft 381 kts 211°
2026-04-28 23:15 40.40177 -88.24958 38032 ft 380 kts 211°
2026-04-28 23:15 40.35210 -88.27303 38033 ft 380 kts 211°
2026-04-28 23:16 40.30235 -88.29653 38034 ft 379 kts 211°
2026-04-28 23:16 40.25264 -88.31998 38032 ft 379 kts 211°
2026-04-28 23:17 40.20311 -88.34327 38028 ft 378 kts 211°
2026-04-28 23:17 40.15365 -88.36650 38031 ft 377 kts 211°
2026-04-28 23:18 40.10430 -88.38971 38025 ft 377 kts 211°
2026-04-28 23:18 40.05491 -88.41281 38025 ft 377 kts 211°
2026-04-28 23:19 40.00551 -88.43583 38011 ft 376 kts 211°
2026-04-28 23:19 39.95627 -88.45873 38026 ft 375 kts 211°
2026-04-28 23:20 39.90714 -88.48162 38023 ft 375 kts 211°
2026-04-28 23:20 39.85805 -88.50444 38021 ft 375 kts 211°
2026-04-28 23:21 39.80894 -88.52724 38021 ft 374 kts 211°
2026-04-28 23:21 39.75998 -88.54996 38023 ft 372 kts 211°
2026-04-28 23:22 39.71159 -88.57245 38023 ft 371 kts 211°
2026-04-28 23:22 39.66297 -88.59495 38022 ft 371 kts 211°
2026-04-28 23:23 39.61437 -88.61736 38022 ft 371 kts 211°
2026-04-28 23:23 39.56576 -88.63988 37977 ft 370 kts 211°
2026-04-28 23:24 39.51740 -88.66219 38175 ft 366 kts 211°
2026-04-28 23:24 39.49346 -88.67315 38451 ft 363 kts 211°
2026-04-28 23:24 39.46976 -88.68398 38717 ft 359 kts 211°
2026-04-28 23:25 39.44624 -88.69472 38921 ft 356 kts 212°
2026-04-28 23:25 39.42290 -88.70544 38997 ft 355 kts 212°
2026-04-28 23:25 39.37621 -88.72702 39022 ft 358 kts 212°
2026-04-28 23:26 39.32910 -88.74870 39004 ft 360 kts 211°
2026-04-28 23:26 39.28198 -88.77019 39021 ft 361 kts 211°
2026-04-28 23:27 39.23470 -88.79176 39024 ft 360 kts 211°
2026-04-28 23:27 39.18733 -88.81336 39022 ft 361 kts 211°
2026-04-28 23:28 39.13994 -88.83498 39032 ft 361 kts 211°
2026-04-28 23:28 39.09254 -88.85649 38988 ft 361 kts 211°
2026-04-28 23:29 39.04512 -88.87797 39008 ft 361 kts 211°
2026-04-28 23:29 38.99782 -88.89946 39033 ft 360 kts 211°
2026-04-28 23:30 38.95063 -88.92088 39038 ft 360 kts 211°
2026-04-28 23:30 38.90342 -88.94234 39020 ft 364 kts 211°
2026-04-28 23:31 38.85526 -88.96397 39014 ft 368 kts 210°
2026-04-28 23:31 38.80662 -88.98587 39022 ft 373 kts 210°
2026-04-28 23:32 38.75733 -89.00806 39017 ft 377 kts 210°
2026-04-28 23:32 38.70762 -89.03046 39016 ft 381 kts 210°
2026-04-28 23:33 38.65732 -89.05303 39049 ft 384 kts 210°
2026-04-28 23:33 38.60688 -89.07560 39029 ft 385 kts 210°
2026-04-28 23:34 38.55611 -89.09829 39033 ft 387 kts 210°
2026-04-28 23:34 38.50531 -89.12095 39034 ft 387 kts 210°
2026-04-28 23:35 38.45437 -89.14372 39037 ft 388 kts 210°
2026-04-28 23:35 38.40230 -89.16364 39035 ft 399 kts 203°
2026-04-28 23:36 38.34787 -89.17732 39030 ft 399 kts 203°
2026-04-28 23:36 38.29363 -89.19093 39029 ft 400 kts 203°
2026-04-28 23:37 38.23899 -89.20470 39024 ft 400 kts 203°
2026-04-28 23:37 38.18446 -89.21848 38960 ft 400 kts 203°
2026-04-28 23:38 38.12978 -89.23222 38971 ft 400 kts 203°
2026-04-28 23:38 38.07505 -89.24599 38956 ft 401 kts 202°
2026-04-28 23:39 38.02013 -89.25976 38961 ft 403 kts 202°
2026-04-28 23:39 37.96499 -89.27359 38982 ft 404 kts 201°
2026-04-28 23:40 37.90967 -89.28739 38969 ft 406 kts 201°
2026-04-28 23:40 37.85417 -89.30132 38982 ft 407 kts 201°
2026-04-28 23:41 37.79847 -89.31517 38988 ft 408 kts 201°
2026-04-28 23:41 37.74271 -89.32898 38984 ft 409 kts 201°
2026-04-28 23:42 37.69593 -89.34066 38960 ft 408 kts 201°
2026-04-28 23:42 37.64063 -89.35437 38999 ft 407 kts 201°
2026-04-28 23:43 37.58517 -89.36808 39005 ft 406 kts 201°
2026-04-28 23:43 37.52968 -89.38181 39007 ft 405 kts 201°
2026-04-28 23:44 37.47432 -89.39556 38975 ft 405 kts 201°
2026-04-28 23:44 37.41905 -89.40926 38979 ft 405 kts 201°
2026-04-28 23:45 37.39145 -89.41602 38631 ft 403 kts 201°
2026-04-28 23:45 37.36406 -89.42270 38073 ft 401 kts 201°
2026-04-28 23:45 37.33679 -89.42930 37925 ft 396 kts 201°
2026-04-28 23:45 37.31010 -89.43584 37976 ft 397 kts 201°
2026-04-28 23:46 37.25545 -89.44950 37990 ft 403 kts 201°
2026-04-28 23:46 37.20012 -89.46318 37989 ft 408 kts 201°
2026-04-28 23:47 37.14419 -89.47686 37990 ft 411 kts 201°
2026-04-28 23:47 37.08798 -89.49048 37985 ft 411 kts 201°
2026-04-28 23:48 37.03179 -89.50405 37953 ft 411 kts 201°
2026-04-28 23:48 36.97562 -89.51785 37930 ft 411 kts 201°
2026-04-28 23:49 36.91938 -89.53162 37953 ft 412 kts 200°
2026-04-28 23:49 36.86310 -89.54529 37951 ft 412 kts 200°
2026-04-28 23:50 36.80674 -89.55889 37952 ft 412 kts 200°
2026-04-28 23:50 36.75047 -89.57254 37951 ft 412 kts 200°
2026-04-28 23:51 36.69427 -89.58616 37945 ft 411 kts 200°
2026-04-28 23:51 36.63796 -89.59966 37939 ft 411 kts 200°
2026-04-28 23:52 36.58185 -89.61309 37954 ft 411 kts 200°
2026-04-28 23:52 36.52571 -89.62672 37932 ft 410 kts 200°
2026-04-28 23:53 36.46960 -89.64025 37934 ft 412 kts 199°
2026-04-28 23:53 36.41327 -89.65383 37933 ft 415 kts 199°
2026-04-28 23:54 36.35643 -89.66742 37932 ft 416 kts 199°
2026-04-28 23:54 36.29962 -89.68097 37929 ft 416 kts 199°
2026-04-28 23:55 36.24278 -89.69460 37889 ft 416 kts 199°
2026-04-28 23:55 36.18564 -89.70829 37931 ft 419 kts 199°
2026-04-28 23:56 36.12826 -89.72193 37934 ft 420 kts 199°
2026-04-28 23:56 36.07092 -89.73548 37934 ft 420 kts 199°
2026-04-28 23:57 36.01348 -89.74911 37934 ft 420 kts 199°
2026-04-28 23:57 35.95612 -89.76273 37934 ft 420 kts 199°
2026-04-28 23:58 35.89877 -89.77640 37934 ft 419 kts 199°
2026-04-28 23:58 35.84138 -89.78996 37925 ft 419 kts 199°
2026-04-28 23:59 35.78408 -89.80351 37926 ft 419 kts 199°
2026-04-28 23:59 35.72678 -89.81704 37923 ft 420 kts 198°
2026-04-29 00:00 35.66923 -89.83059 37927 ft 426 kts 198°
2026-04-29 00:00 35.61086 -89.84427 37932 ft 427 kts 198°
2026-04-29 00:01 35.55238 -89.85806 37940 ft 427 kts 198°
2026-04-29 00:01 35.49392 -89.87169 37922 ft 428 kts 198°
2026-04-29 00:02 35.43530 -89.88536 37945 ft 430 kts 198°
2026-04-29 00:02 35.37650 -89.89919 37953 ft 430 kts 198°
2026-04-29 00:03 35.31807 -89.91287 37953 ft 430 kts 198°
2026-04-29 00:03 35.25931 -89.92652 37946 ft 430 kts 198°
2026-04-29 00:04 35.20031 -89.94025 37936 ft 432 kts 198°
2026-04-29 00:04 35.14132 -89.95404 37932 ft 432 kts 198°
2026-04-29 00:05 35.08207 -89.96778 37934 ft 432 kts 197°
2026-04-29 00:05 35.02327 -89.98129 37937 ft 432 kts 197°
2026-04-29 00:06 34.96385 -89.99395 37916 ft 435 kts 195°
2026-04-29 00:06 34.90366 -90.00518 37904 ft 440 kts 195°
2026-04-29 00:07 34.84276 -90.01645 37904 ft 443 kts 195°
2026-04-29 00:07 34.78184 -90.02803 37919 ft 443 kts 195°
2026-04-29 00:08 34.72088 -90.03979 37907 ft 444 kts 195°
2026-04-29 00:08 34.65959 -90.05165 37926 ft 447 kts 195°
2026-04-29 00:09 34.59811 -90.06347 37933 ft 447 kts 195°
2026-04-29 00:09 34.53654 -90.07515 37931 ft 447 kts 195°
2026-04-29 00:10 34.47541 -90.08677 37883 ft 447 kts 195°
2026-04-29 00:10 34.41358 -90.09856 37941 ft 452 kts 195°
2026-04-29 00:11 34.35098 -90.11050 37944 ft 457 kts 195°
2026-04-29 00:12 34.25666 -90.12842 37952 ft 458 kts 195°
2026-04-29 00:12 34.19361 -90.14033 37950 ft 459 kts 196°
2026-04-29 00:13 34.13036 -90.15228 37956 ft 461 kts 196°
2026-04-29 00:13 34.06691 -90.16421 37961 ft 461 kts 196°
2026-04-29 00:14 34.00341 -90.17624 37972 ft 461 kts 196°
2026-04-29 00:14 33.94010 -90.18828 37960 ft 462 kts 195°
2026-04-29 00:15 33.87619 -90.20030 37978 ft 465 kts 195°
2026-04-29 00:15 33.81209 -90.21227 37978 ft 466 kts 195°
2026-04-29 00:16 33.74833 -90.22420 37970 ft 466 kts 195°
2026-04-29 00:16 33.68424 -90.23620 37975 ft 466 kts 195°
2026-04-29 00:17 33.61968 -90.24837 37962 ft 472 kts 195°
2026-04-29 00:17 33.55433 -90.26054 37961 ft 475 kts 195°
2026-04-29 00:18 33.48893 -90.27271 37962 ft 476 kts 195°
2026-04-29 00:18 33.42227 -90.27716 37966 ft 484 kts 186°
2026-04-29 00:19 33.35483 -90.27650 37967 ft 484 kts 186°
2026-04-29 00:19 33.28743 -90.27577 37975 ft 484 kts 186°
2026-04-29 00:20 33.22004 -90.27512 37981 ft 484 kts 186°
2026-04-29 00:20 33.15265 -90.27450 37978 ft 484 kts 185°
2026-04-29 00:21 33.08491 -90.27395 37985 ft 489 kts 185°
2026-04-29 00:21 33.01686 -90.27336 37983 ft 490 kts 185°
2026-04-29 00:22 32.94896 -90.27271 37987 ft 490 kts 185°
2026-04-29 00:22 32.88077 -90.27210 37975 ft 490 kts 185°
2026-04-29 00:23 32.81217 -90.27156 37985 ft 495 kts 185°
2026-04-29 00:23 32.74309 -90.27090 37983 ft 497 kts 185°
2026-04-29 00:24 32.67386 -90.27022 37989 ft 497 kts 185°
2026-04-29 00:24 32.60508 -90.26959 37986 ft 497 kts 184°
2026-04-29 00:25 32.53527 -90.26901 37995 ft 499 kts 184°
2026-04-29 00:25 32.47750 -90.26857 38003 ft 499 kts 184°
2026-04-29 00:26 32.39672 -90.26786 37994 ft 499 kts 184°
2026-04-29 00:26 32.33851 -90.26736 37991 ft 499 kts 184°
2026-04-29 00:27 32.26898 -90.26675 38006 ft 500 kts 184°
2026-04-29 00:27 32.19934 -90.26614 38007 ft 500 kts 184°
2026-04-29 00:28 32.12977 -90.26549 38003 ft 500 kts 184°
2026-04-29 00:28 32.06057 -90.26479 38013 ft 500 kts 184°
2026-04-29 00:29 31.99076 -90.26417 38006 ft 501 kts 184°
2026-04-29 00:29 31.92098 -90.26355 38015 ft 501 kts 184°
2026-04-29 00:30 31.85166 -90.26303 38010 ft 501 kts 184°
2026-04-29 00:30 31.78195 -90.26248 38010 ft 501 kts 184°
2026-04-29 00:31 31.71215 -90.26182 38018 ft 500 kts 184°
2026-04-29 00:31 31.64255 -90.26119 38012 ft 500 kts 184°
2026-04-29 00:32 31.57291 -90.26061 38014 ft 500 kts 184°
2026-04-29 00:32 31.50329 -90.26004 38002 ft 501 kts 184°
2026-04-29 00:33 31.43340 -90.25936 38016 ft 502 kts 184°
2026-04-29 00:33 31.36385 -90.25877 38022 ft 503 kts 184°
2026-04-29 00:34 31.29390 -90.25801 38026 ft 503 kts 183°
2026-04-29 00:34 31.22370 -90.25396 38013 ft 506 kts 180°
2026-04-29 00:35 31.15338 -90.24756 38027 ft 508 kts 179°
2026-04-29 00:35 31.08287 -90.24156 38027 ft 507 kts 180°
2026-04-29 00:36 31.01238 -90.23644 38028 ft 507 kts 180°
2026-04-29 00:36 30.94188 -90.23153 38014 ft 507 kts 181°
2026-04-29 00:37 30.87140 -90.22645 38021 ft 507 kts 181°
2026-04-29 00:37 30.80094 -90.22119 38032 ft 508 kts 180°
2026-04-29 00:38 30.73034 -90.21595 38037 ft 508 kts 181°
2026-04-29 00:38 30.66031 -90.21083 38040 ft 508 kts 180°
2026-04-29 00:39 30.58975 -90.20570 38035 ft 508 kts 181°
2026-04-29 00:39 30.51920 -90.20067 38043 ft 508 kts 181°
2026-04-29 00:40 30.44848 -90.19548 38051 ft 508 kts 181°
2026-04-29 00:40 30.37794 -90.19037 38035 ft 509 kts 181°
2026-04-29 00:41 30.30698 -90.18522 38053 ft 511 kts 181°
2026-04-29 00:41 30.23595 -90.17998 38046 ft 512 kts 181°
2026-04-29 00:42 30.16483 -90.17484 38056 ft 512 kts 181°
2026-04-29 00:42 30.09373 -90.16973 38043 ft 513 kts 182°
2026-04-29 00:43 30.02208 -90.16455 38055 ft 517 kts 182°
2026-04-29 00:43 29.95016 -90.15933 38054 ft 518 kts 182°
2026-04-29 00:44 29.87835 -90.15421 38063 ft 518 kts 182°
2026-04-29 00:44 29.80663 -90.14905 38048 ft 519 kts 182°
2026-04-29 00:45 29.73385 -90.14385 38063 ft 522 kts 182°
2026-04-29 00:45 29.66164 -90.13877 38062 ft 523 kts 182°
2026-04-29 00:46 29.58897 -90.13363 38063 ft 523 kts 182°
2026-04-29 00:46 29.51627 -90.12833 38066 ft 524 kts 181°
2026-04-29 00:47 29.44335 -90.12307 38084 ft 525 kts 182°
2026-04-29 00:47 29.37029 -90.11786 38078 ft 526 kts 182°
2026-04-29 00:48 29.29721 -90.11265 38075 ft 526 kts 182°
2026-04-29 00:48 29.22421 -90.10753 38062 ft 526 kts 181°
2026-04-29 00:49 29.15151 -90.09399 38072 ft 537 kts 162°
2026-04-29 00:49 29.08184 -90.06418 38067 ft 539 kts 162°
2026-04-29 00:50 29.01158 -90.03406 38065 ft 539 kts 162°
2026-04-29 00:50 28.94135 -90.00413 38039 ft 539 kts 162°
2026-04-29 00:51 28.87093 -89.97420 38064 ft 539 kts 162°
2026-04-29 00:51 28.80062 -89.94428 38069 ft 539 kts 162°
2026-04-29 00:52 28.73034 -89.91447 38068 ft 539 kts 162°
2026-04-29 00:52 28.66003 -89.88468 38047 ft 539 kts 161°
2026-04-29 00:53 28.58956 -89.85482 38056 ft 540 kts 161°
2026-04-29 00:53 28.51948 -89.82516 38069 ft 540 kts 162°
2026-04-29 00:54 28.44905 -89.79545 38067 ft 540 kts 161°
2026-04-29 00:54 28.37864 -89.76575 38060 ft 540 kts 161°
2026-04-29 00:55 28.30796 -89.73603 38067 ft 542 kts 161°
2026-04-29 00:55 28.23702 -89.70626 38068 ft 543 kts 161°
2026-04-29 00:56 28.16617 -89.67648 38068 ft 543 kts 161°
2026-04-29 00:56 28.09530 -89.64673 38068 ft 543 kts 161°
2026-04-29 00:57 28.02433 -89.61703 38074 ft 545 kts 161°
2026-04-29 00:57 27.95355 -89.58740 38071 ft 545 kts 161°
2026-04-29 00:58 27.88232 -89.55764 38071 ft 545 kts 161°
2026-04-29 00:58 27.81063 -89.52937 38059 ft 542 kts 171°
2026-04-29 00:59 27.73647 -89.51643 38067 ft 540 kts 175°
2026-04-29 00:59 27.66197 -89.50428 38070 ft 540 kts 175°
2026-04-29 01:00 27.58764 -89.49207 38071 ft 540 kts 175°
2026-04-29 01:00 27.51315 -89.47991 38073 ft 540 kts 175°
2026-04-29 01:01 27.43929 -89.46792 38080 ft 541 kts 175°
2026-04-29 01:01 27.36462 -89.45571 38077 ft 542 kts 175°
2026-04-29 01:02 27.28991 -89.44352 38060 ft 542 kts 175°
2026-04-29 01:02 27.21523 -89.43141 38083 ft 542 kts 175°
2026-04-29 01:03 27.14069 -89.41931 38077 ft 542 kts 175°
2026-04-29 01:03 27.06591 -89.40718 38067 ft 542 kts 175°
2026-04-29 01:04 26.99126 -89.39508 38071 ft 542 kts 175°
2026-04-29 01:04 26.91653 -89.38296 38078 ft 542 kts 175°
2026-04-29 01:05 26.84177 -89.37092 38073 ft 541 kts 175°
2026-04-29 01:05 26.76716 -89.35902 38076 ft 541 kts 175°
2026-04-29 01:06 26.69306 -89.34709 38078 ft 541 kts 175°
2026-04-29 01:06 26.61860 -89.33505 38080 ft 541 kts 175°
2026-04-29 01:07 26.54410 -89.32317 38065 ft 540 kts 175°
2026-04-29 01:07 26.46977 -89.31127 38079 ft 539 kts 174°
2026-04-29 01:08 26.39552 -89.29936 38080 ft 539 kts 174°
2026-04-29 01:08 26.32117 -89.28744 38078 ft 539 kts 174°
2026-04-29 01:09 26.24688 -89.27552 38064 ft 539 kts 174°
2026-04-29 01:09 26.17262 -89.26372 38082 ft 538 kts 174°
2026-04-29 01:10 26.11101 -89.25398 38077 ft 538 kts 174°
2026-04-29 01:10 26.03682 -89.24220 38077 ft 538 kts 174°
2026-04-29 01:11 25.95052 -89.22841 38071 ft 540 kts 174°
2026-04-29 01:11 25.88825 -89.21852 38074 ft 540 kts 174°
2026-04-29 01:12 25.81391 -89.20681 38083 ft 540 kts 174°
2026-04-29 01:12 25.74004 -89.19510 38077 ft 540 kts 174°
2026-04-29 01:13 25.66517 -89.18318 38076 ft 540 kts 174°
2026-04-29 01:13 25.59137 -89.17158 38083 ft 538 kts 174°
2026-04-29 01:14 25.51711 -89.15997 38079 ft 538 kts 174°
2026-04-29 01:14 25.44286 -89.14824 38070 ft 538 kts 174°
2026-04-29 01:15 25.36869 -89.13648 38073 ft 538 kts 174°
2026-04-29 01:15 25.29463 -89.12491 38082 ft 537 kts 174°
2026-04-29 01:16 25.22055 -89.11329 38076 ft 537 kts 174°
2026-04-29 01:16 25.14693 -89.10173 38064 ft 537 kts 174°
2026-04-29 01:17 25.07283 -89.09021 38078 ft 537 kts 174°
2026-04-29 01:17 24.99879 -89.07865 38061 ft 537 kts 174°
2026-04-29 01:18 24.92476 -89.06708 38065 ft 536 kts 174°
2026-04-29 01:18 24.81377 -89.04971 38067 ft 536 kts 174°
2026-04-29 01:19 24.74041 -89.03833 38066 ft 536 kts 174°
2026-04-29 01:19 24.66663 -89.02690 38066 ft 536 kts 174°
2026-04-29 01:20 24.59268 -89.01536 38062 ft 536 kts 174°
2026-04-29 01:20 24.51882 -89.00386 38063 ft 536 kts 174°
2026-04-29 01:21 24.44492 -88.99247 38061 ft 536 kts 174°
2026-04-29 01:21 24.37113 -88.98115 38055 ft 535 kts 174°
2026-04-29 01:22 24.29740 -88.96975 38059 ft 535 kts 173°
2026-04-29 01:22 24.22353 -88.95828 38057 ft 535 kts 173°
2026-04-29 01:23 24.15020 -88.94690 38057 ft 535 kts 173°
2026-04-29 01:23 24.07651 -88.93552 38054 ft 535 kts 174°
2026-04-29 01:24 24.00282 -88.92423 38054 ft 534 kts 173°
2026-04-29 01:24 23.92926 -88.91293 38054 ft 533 kts 173°
2026-04-29 01:25 23.85574 -88.90163 38056 ft 533 kts 173°
2026-04-29 01:25 23.78224 -88.89043 38056 ft 533 kts 173°
2026-04-29 01:26 23.70887 -88.87924 38050 ft 532 kts 173°
2026-04-29 01:26 23.63565 -88.86800 38046 ft 531 kts 173°
2026-04-29 01:27 23.56250 -88.85680 38045 ft 531 kts 173°
2026-04-29 01:27 23.48943 -88.84567 37713 ft 524 kts 173°
2026-04-29 01:28 23.45358 -88.84020 37486 ft 519 kts 173°
2026-04-29 01:28 23.41834 -88.83481 37243 ft 516 kts 173°
2026-04-29 01:28 23.38288 -88.82941 37010 ft 513 kts 173°
2026-04-29 01:28 23.34767 -88.82407 36780 ft 512 kts 173°
2026-04-29 01:29 23.31230 -88.81869 36556 ft 510 kts 173°
2026-04-29 01:29 23.27698 -88.81331 36330 ft 509 kts 173°
2026-04-29 01:29 23.24191 -88.80797 36107 ft 509 kts 173°
2026-04-29 01:29 23.20687 -88.80265 35734 ft 506 kts 173°
2026-04-29 01:30 23.17205 -88.79740 35310 ft 504 kts 173°
2026-04-29 01:30 23.13751 -88.79217 34779 ft 500 kts 173°
2026-04-29 01:30 23.10351 -88.78454 34134 ft 496 kts 162°
2026-04-29 01:30 23.07150 -88.77139 33412 ft 490 kts 151°
2026-04-29 01:31 23.04220 -88.75323 32792 ft 479 kts 142°
2026-04-29 01:31 23.01533 -88.73310 32214 ft 472 kts 142°
2026-04-29 01:31 22.98840 -88.71303 31656 ft 466 kts 143°
2026-04-29 01:31 22.96188 -88.69335 31113 ft 459 kts 143°
2026-04-29 01:32 22.93565 -88.67396 30589 ft 452 kts 143°
2026-04-29 01:32 22.90988 -88.65493 30083 ft 445 kts 144°
2026-04-29 01:32 22.88440 -88.63611 29465 ft 439 kts 144°
2026-04-29 01:32 22.85929 -88.61755 28887 ft 434 kts 144°
2026-04-29 01:33 22.83447 -88.59919 28295 ft 429 kts 144°
2026-04-29 01:33 22.80998 -88.58106 27706 ft 425 kts 144°
2026-04-29 01:33 22.78568 -88.56304 27125 ft 420 kts 143°
2026-04-29 01:33 22.76169 -88.54524 26537 ft 416 kts 143°
2026-04-29 01:34 22.73793 -88.52767 25975 ft 411 kts 143°
2026-04-29 01:34 22.71435 -88.51030 25409 ft 407 kts 143°
2026-04-29 01:34 22.69104 -88.49317 24839 ft 403 kts 143°
2026-04-29 01:34 22.66829 -88.47575 24289 ft 398 kts 139°
2026-04-29 01:35 22.64753 -88.45620 23765 ft 391 kts 134°
2026-04-29 01:35 22.62791 -88.43650 23177 ft 387 kts 134°
2026-04-29 01:35 22.60825 -88.41684 22567 ft 383 kts 134°
2026-04-29 01:35 22.58874 -88.39738 21961 ft 378 kts 134°
2026-04-29 01:36 22.56949 -88.37818 21374 ft 374 kts 134°
2026-04-29 01:36 22.55051 -88.35923 20808 ft 369 kts 134°
2026-04-29 01:36 22.53174 -88.34049 20242 ft 365 kts 134°
2026-04-29 01:36 22.51315 -88.32197 19693 ft 361 kts 134°
2026-04-29 01:37 22.49480 -88.30366 19149 ft 358 kts 134°
2026-04-29 01:37 22.47641 -88.28532 18411 ft 362 kts 134°
2026-04-29 01:37 22.45735 -88.26626 18104 ft 383 kts 134°
2026-04-29 01:37 22.43749 -88.24639 17950 ft 395 kts 134°
2026-04-29 01:38 22.41709 -88.22603 17978 ft 401 kts 134°
2026-04-29 01:38 22.39658 -88.20555 17983 ft 402 kts 134°
2026-04-29 01:38 22.37594 -88.18501 17982 ft 403 kts 135°
2026-04-29 01:38 22.35527 -88.16456 17989 ft 403 kts 135°
2026-04-29 01:39 22.33456 -88.14407 17989 ft 403 kts 135°
2026-04-29 01:39 22.31420 -88.12388 17983 ft 403 kts 135°
2026-04-29 01:39 22.29359 -88.10341 17983 ft 403 kts 135°
2026-04-29 01:39 22.27288 -88.08287 17988 ft 403 kts 135°
2026-04-29 01:40 22.25229 -88.06242 17980 ft 402 kts 135°
2026-04-29 01:40 22.23167 -88.04192 17986 ft 402 kts 134°
2026-04-29 01:40 22.21112 -88.02152 17984 ft 402 kts 135°
2026-04-29 01:40 22.19051 -88.00108 17665 ft 399 kts 135°
2026-04-29 01:41 22.17012 -87.98085 17164 ft 395 kts 134°
2026-04-29 01:41 22.14998 -87.96091 16693 ft 391 kts 134°
2026-04-29 01:41 22.13021 -87.94135 16456 ft 380 kts 134°
2026-04-29 01:41 22.11087 -87.92218 16077 ft 375 kts 134°
2026-04-29 01:42 22.09178 -87.90328 15627 ft 371 kts 134°
2026-04-29 01:42 22.07284 -87.88452 15182 ft 368 kts 134°
2026-04-29 01:42 22.05411 -87.86597 14758 ft 364 kts 134°
2026-04-29 01:42 22.03548 -87.84759 14329 ft 361 kts 134°
2026-04-29 01:43 22.01704 -87.82941 13913 ft 358 kts 134°
2026-04-29 01:43 21.99880 -87.81139 13461 ft 354 kts 133°
2026-04-29 01:43 21.98073 -87.79353 13011 ft 351 kts 134°
2026-04-29 01:43 21.96284 -87.77586 12580 ft 347 kts 133°
2026-04-29 01:44 21.94536 -87.75863 12163 ft 343 kts 133°
2026-04-29 01:44 21.92788 -87.74138 11747 ft 339 kts 134°
2026-04-29 01:44 21.91058 -87.72432 11332 ft 335 kts 134°
2026-04-29 01:44 21.89349 -87.70749 10940 ft 331 kts 135°
2026-04-29 01:45 21.87660 -87.69083 10532 ft 328 kts 135°
2026-04-29 01:45 21.85985 -87.67431 10135 ft 325 kts 135°
2026-04-29 01:45 21.84332 -87.65807 9875 ft 316 kts 135°
2026-04-29 01:45 21.82740 -87.64248 9747 ft 303 kts 135°
2026-04-29 01:46 21.81212 -87.62751 9616 ft 292 kts 135°
2026-04-29 01:46 21.79732 -87.61299 9369 ft 286 kts 136°
2026-04-29 01:46 21.78158 -87.59986 9026 ft 284 kts 142°
2026-04-29 01:46 21.76546 -87.58769 8664 ft 283 kts 142°
2026-04-29 01:47 21.74943 -87.57568 8466 ft 276 kts 142°
2026-04-29 01:47 21.73400 -87.56412 8344 ft 266 kts 142°
2026-04-29 01:47 21.71909 -87.55298 8215 ft 256 kts 142°
2026-04-29 01:47 21.70468 -87.54224 8049 ft 249 kts 142°
2026-04-29 01:48 21.69056 -87.53168 7766 ft 246 kts 142°
2026-04-29 01:48 21.67654 -87.52118 7475 ft 245 kts 142°
2026-04-29 01:48 21.66262 -87.51071 7179 ft 243 kts 142°
2026-04-29 01:48 21.64894 -87.50036 6835 ft 240 kts 142°
2026-04-29 01:49 21.63529 -87.49000 6461 ft 239 kts 142°
2026-04-29 01:49 21.62192 -87.47983 6076 ft 238 kts 142°
2026-04-29 01:49 21.60850 -87.46956 5703 ft 235 kts 142°
2026-04-29 01:49 21.59523 -87.45936 5308 ft 234 kts 142°
2026-04-29 01:50 21.58204 -87.44918 4934 ft 232 kts 142°
2026-04-29 01:50 21.56899 -87.43913 4550 ft 230 kts 142°
2026-04-29 01:50 21.55606 -87.42913 4171 ft 228 kts 142°
2026-04-29 01:50 21.54327 -87.41926 3803 ft 225 kts 142°
2026-04-29 01:51 21.53067 -87.40954 3539 ft 218 kts 142°
2026-04-29 01:51 21.51884 -87.40045 3375 ft 201 kts 142°
2026-04-29 01:51 21.50763 -87.39193 3020 ft 195 kts 142°
2026-04-29 01:51 21.49655 -87.38352 2988 ft 196 kts 142°
2026-04-29 01:52 21.48543 -87.37508 2989 ft 195 kts 142°
2026-04-29 01:52 21.47459 -87.36690 2983 ft 185 kts 142°
2026-04-29 01:52 21.46453 -87.35873 2985 ft 178 kts 131°
2026-04-29 01:52 21.45708 -87.34825 3002 ft 175 kts 125°
2026-04-29 01:53 21.44984 -87.33775 2997 ft 175 kts 125°
2026-04-29 01:53 21.44264 -87.32727 2988 ft 174 kts 125°
2026-04-29 01:53 21.43546 -87.31680 2990 ft 174 kts 125°
2026-04-29 01:53 21.42831 -87.30636 2990 ft 174 kts 125°
2026-04-29 01:54 21.42115 -87.29592 2994 ft 174 kts 125°
2026-04-29 01:54 21.41641 -87.28901 2994 ft 174 kts 125°
2026-04-29 01:54 21.40832 -87.27938 2983 ft 176 kts 140°
2026-04-29 01:54 21.39794 -87.27235 2991 ft 177 kts 147°
2026-04-29 01:55 21.38725 -87.26585 2945 ft 174 kts 147°
2026-04-29 01:55 21.37389 -87.25674 2432 ft 171 kts 134°
2026-04-29 01:55 21.36821 -87.25069 2184 ft 170 kts 134°
2026-04-29 01:55 21.36028 -87.24228 2050 ft 153 kts 134°
2026-04-29 01:56 21.35293 -87.23450 1993 ft 148 kts 133°
2026-04-29 01:56 21.34555 -87.22669 1992 ft 146 kts 133°
2026-04-29 01:56 21.33842 -87.21913 1990 ft 146 kts 133°
2026-04-29 01:56 21.33038 -87.21252 1990 ft 149 kts 150°
2026-04-29 01:57 21.32069 -87.20841 1994 ft 150 kts 156°
2026-04-29 01:57 21.31073 -87.20480 1992 ft 151 kts 157°
2026-04-29 01:57 21.30071 -87.20138 1992 ft 151 kts 157°
2026-04-29 01:57 21.29038 -87.19790 1994 ft 155 kts 158°
2026-04-29 01:58 21.28021 -87.19431 1990 ft 152 kts 154°
2026-04-29 01:58 21.27226 -87.18754 1991 ft 144 kts 127°
2026-04-29 01:58 21.26600 -87.17926 1993 ft 142 kts 127°
2026-04-29 01:58 21.25976 -87.17106 1995 ft 141 kts 127°
2026-04-29 01:59 21.25357 -87.16290 1992 ft 141 kts 127°
2026-04-29 01:59 21.24737 -87.15473 1989 ft 141 kts 127°
2026-04-29 01:59 21.24117 -87.14655 1990 ft 142 kts 127°
2026-04-29 01:59 21.23494 -87.13833 1990 ft 142 kts 127°
2026-04-29 02:00 21.22871 -87.13011 1994 ft 142 kts 127°
2026-04-29 02:00 21.22246 -87.12187 1994 ft 141 kts 127°
2026-04-29 02:00 21.21641 -87.11389 1994 ft 139 kts 127°
2026-04-29 02:00 21.21033 -87.10584 1995 ft 139 kts 127°
2026-04-29 02:01 21.20425 -87.09781 2001 ft 138 kts 127°
2026-04-29 02:01 21.19820 -87.08981 2000 ft 138 kts 127°
2026-04-29 02:01 21.19214 -87.08180 1999 ft 138 kts 127°
2026-04-29 02:01 21.18611 -87.07383 1952 ft 134 kts 127°
2026-04-29 02:02 21.18024 -87.06608 1547 ft 135 kts 126°
2026-04-29 02:02 21.17433 -87.05830 1394 ft 136 kts 126°
2026-04-29 02:02 21.16823 -87.05022 1400 ft 141 kts 126°
2026-04-29 02:02 21.16206 -87.04205 1400 ft 141 kts 126°
2026-04-29 02:03 21.15587 -87.03388 1399 ft 141 kts 126°
2026-04-29 02:03 21.14970 -87.02571 1399 ft 141 kts 126°
2026-04-29 02:03 21.14353 -87.01756 1399 ft 141 kts 126°
2026-04-29 02:03 21.13734 -87.00939 1398 ft 141 kts 127°
2026-04-29 02:04 21.13101 -87.00138 1398 ft 141 kts 126°
2026-04-29 02:04 21.12509 -86.99301 1398 ft 141 kts 123°
2026-04-29 02:04 21.11946 -86.98451 1396 ft 139 kts 122°
2026-04-29 02:04 21.11401 -86.97604 1397 ft 137 kts 122°
2026-04-29 02:05 21.10865 -86.96758 1398 ft 137 kts 123°
2026-04-29 02:05 21.10331 -86.95908 1396 ft 137 kts 122°
2026-04-29 02:05 21.09801 -86.95061 1388 ft 138 kts 122°
2026-04-29 02:05 21.09266 -86.94207 1296 ft 139 kts 122°
2026-04-29 02:06 21.08735 -86.93359 1155 ft 138 kts 122°
2026-04-29 02:06 21.08202 -86.92505 991 ft 138 kts 123°
2026-04-29 02:06 21.07669 -86.91653 823 ft 138 kts 120°
2026-04-29 02:06 21.07130 -86.90790 662 ft 139 kts 122°
2026-04-29 02:07 21.06594 -86.89935 474 ft 136 kts 123°
2026-04-29 02:07 21.06066 -86.89091 298 ft 136 kts 124°
2026-04-29 02:07 21.05539 -86.88244 104 ft 136 kts 124°
2026-04-29 02:07 21.05038 -86.87436 26 ft 119 kts 124°
2026-04-29 02:08 21.04694 -86.86891 22 ft 46 kts 123°
2026-04-29 02:08 21.04553 -86.86666 21 ft 35 kts 124°
2026-04-29 02:08 21.04427 -86.86484 21 ft 26 kts 134°
2026-04-29 02:08 21.04278 -86.86379 19 ft 26 kts 154°
2026-04-29 02:09 21.04199 -86.86338 18 ft 10 kts 154°
2026-04-29 02:09 21.04175 -86.86325 18 ft 4 kts 154°
2026-04-29 02:09 21.04149 -86.86330 18 ft 4 kts 216°
2026-04-29 02:09 21.04150 -86.86357 20 ft 4 kts 317°
2026-04-29 02:10 21.04171 -86.86381 18 ft 5 kts 313°
2026-04-29 02:10 21.04195 -86.86418 19 ft 7 kts 304°
2026-04-29 02:10 21.04222 -86.86462 19 ft 7 kts 302°
2026-04-29 02:10 21.04243 -86.86496 19 ft 4 kts 303°
2026-04-29 02:11 21.04257 -86.86519 19 ft 4 kts 303°
2026-04-29 02:11 21.04277 -86.86551 19 ft 7 kts 304°
2026-04-29 02:11 21.04310 -86.86605 19 ft 10 kts 302°
2026-04-29 02:11 21.04350 -86.86670 20 ft 12 kts 303°
2026-04-29 02:12 21.04397 -86.86745 20 ft 13 kts 304°
2026-04-29 02:12 21.04450 -86.86829 20 ft 14 kts 304°
2026-04-29 02:12 21.04508 -86.86921 20 ft 16 kts 304°
2026-04-29 02:12 21.04568 -86.87020 21 ft 17 kts 303°
2026-04-29 02:13 21.04636 -86.87129 21 ft 18 kts 303°
2026-04-29 02:13 21.04709 -86.87248 21 ft 20 kts 303°
2026-04-29 02:13 21.04785 -86.87369 22 ft 20 kts 302°
2026-04-29 02:13 21.04862 -86.87492 22 ft 20 kts 304°
2026-04-29 02:14 21.04936 -86.87609 23 ft 16 kts 304°
2026-04-29 02:14 21.05000 -86.87710 23 ft 17 kts 304°
2026-04-29 02:14 21.05070 -86.87815 24 ft 18 kts 304°
2026-04-29 02:14 21.05139 -86.87929 24 ft 19 kts 302°
2026-04-29 02:15 21.05202 -86.88039 24 ft 13 kts 289°
2026-04-29 02:15 21.05158 -86.88105 24 ft 12 kts 213°
2026-04-29 02:15 21.05084 -86.88158 24 ft 13 kts 214°
2026-04-29 02:15 21.05002 -86.88215 24 ft 15 kts 214°
2026-04-29 02:16 21.04914 -86.88278 24 ft 16 kts 213°
2026-04-29 02:16 21.04818 -86.88346 24 ft 17 kts 214°
2026-04-29 02:16 21.04716 -86.88420 24 ft 18 kts 214°
2026-04-29 02:16 21.04636 -86.88475 24 ft 10 kts 212°
2026-04-29 02:17 21.04576 -86.88516 26 ft 11 kts 214°
2026-04-29 02:17 21.04509 -86.88565 24 ft 12 kts 215°
2026-04-29 02:17 21.04432 -86.88606 25 ft 12 kts 178°
2026-04-29 02:17 21.04391 -86.88554 24 ft 10 kts 123°
2026-04-29 02:18 21.04348 -86.88490 24 ft 11 kts 125°
2026-04-29 02:18 21.04301 -86.88415 24 ft 13 kts 124°
2026-04-29 02:18 21.04247 -86.88330 24 ft 14 kts 124°
2026-04-29 02:18 21.04189 -86.88237 23 ft 16 kts 123°
2026-04-29 02:19 21.04126 -86.88136 22 ft 17 kts 123°
2026-04-29 02:19 21.04056 -86.88026 22 ft 18 kts 124°
2026-04-29 02:19 21.03983 -86.87912 22 ft 18 kts 116°
2026-04-29 02:19 21.03911 -86.87797 22 ft 19 kts 126°
2026-04-29 02:20 21.03835 -86.87676 22 ft 20 kts 122°
2026-04-29 02:20 21.03755 -86.87548 22 ft 21 kts 124°
2026-04-29 02:20 21.03672 -86.87418 21 ft 22 kts 121°
2026-04-29 02:20 21.03588 -86.87281 21 ft 23 kts 124°
2026-04-29 02:21 21.03544 -86.87207 20 ft 10 kts 121°
2026-04-29 02:21 21.03519 -86.87153 20 ft 8 kts 97°
2026-04-29 02:21 21.03551 -86.87113 20 ft 7 kts
2026-04-29 02:21 21.03602 -86.87106 20 ft 9 kts 28°
2026-04-29 02:22 21.03646 -86.87076 20 ft 0 kts 34°